When you browse on this site, cookies collect data to enhance your experience and personalize the content and advertising you see.
Visit our Privacy Policy to learn more. By continuing to use the site, you agree to this use of cookies and data.
  • In Belgium
  • List of Countries
  • For 7 days
  • Water Temperature
  • Satellite Maps
  • Weather Map
  • Weather Widgets
  • user-avatar
    Login

    Hourly Weather Kavarna

    Today, 26 June, Wednesday

    Time Temperature Precipitation Wind Pressure Humidity
    00:00 +24°C° 0.4 mm 8 mps 763 mmHg 79%
    01:00 +24°C° 0.4 mm 8 mps 763 mmHg 79%
    02:00 +24°C° 0.4 mm 9 mps 763 mmHg 80%
    03:00 +24°C° 0.4 mm 9 mps 763 mmHg 81%
    04:00 +23°C° 0.4 mm 9 mps 763 mmHg 83%
    05:00 +23°C° 0.4 mm 9 mps 763 mmHg 84%
    06:00 +24°C° 0.5 mm 9 mps 763 mmHg 79%
    07:00 +27°C° 0.5 mm 9 mps 763 mmHg 74%
    08:00 +28°C° 0.5 mm 9 mps 764 mmHg 69%
    09:00 +29°C° 0.5 mm 9 mps 764 mmHg 66%
    10:00 +29°C° 0.5 mm 10 mps 764 mmHg 64%
    11:00 +31°C° 0.5 mm 10 mps 764 mmHg 61%
    12:00 +31°C° 0.2 mm 10 mps 764 mmHg 60%
    13:00 +31°C° 0.2 mm 10 mps 764 mmHg 59%
    14:00 +32°C° 0.2 mm 9 mps 764 mmHg 59%
    15:00 +31°C° 0.3 mm 9 mps 764 mmHg 61%
    16:00 +31°C° 0.3 mm 9 mps 763 mmHg 63%
    17:00 +29°C° 0.3 mm 8 mps 763 mmHg 65%
    18:00 +28°C° 0 mm 8 mps 763 mmHg 72%
    19:00 +27°C° 0 mm 7 mps 763 mmHg 78%
    20:00 +24°C° 0 mm 7 mps 763 mmHg 85%
    21:00 +24°C° 0 mm 6 mps 763 mmHg 85%
    22:00 +23°C° 0 mm 5 mps 763 mmHg 86%
    23:00 +23°C° 0 mm 4 mps 763 mmHg 86%

    Tomorrow, 27 June, Thursday

    Time Temperature Precipitation Wind Pressure Humidity
    00:00 +22°C° 0 mm 5 mps 763 mmHg 87%
    01:00 +22°C° 0 mm 5 mps 763 mmHg 88%
    02:00 +22°C° 0 mm 6 mps 763 mmHg 89%
    03:00 +21°C° 0 mm 6 mps 762 mmHg 89%
    04:00 +21°C° 0 mm 5 mps 762 mmHg 89%
    05:00 +21°C° 0 mm 5 mps 762 mmHg 88%
    06:00 +23°C° 0 mm 5 mps 762 mmHg 77%
    07:00 +25°C° 0 mm 5 mps 762 mmHg 66%
    08:00 +27°C° 0 mm 5 mps 762 mmHg 55%
    09:00 +28°C° 0 mm 4 mps 761 mmHg 51%
    10:00 +30°C° 0 mm 4 mps 761 mmHg 46%
    11:00 +31°C° 0 mm 3 mps 761 mmHg 41%
    12:00 +31°C° 0 mm 3 mps 760 mmHg 42%
    13:00 +31°C° 0 mm 3 mps 760 mmHg 43%
    14:00 +31°C° 0 mm 3 mps 759 mmHg 44%
    15:00 +31°C° 0 mm 3 mps 759 mmHg 46%
    16:00 +30°C° 0 mm 3 mps 758 mmHg 48%
    17:00 +29°C° 0 mm 3 mps 757 mmHg 50%
    18:00 +28°C° 0 mm 4 mps 757 mmHg 57%
    19:00 +27°C° 0 mm 4 mps 757 mmHg 63%
    20:00 +25°C° 0 mm 5 mps 756 mmHg 70%
    21:00 +25°C° 0 mm 5 mps 756 mmHg 72%
    22:00 +25°C° 0 mm 5 mps 756 mmHg 75%
    23:00 +25°C° 0 mm 5 mps 756 mmHg 77%

    Day after tomorrow, 28 June, Friday

    Time Temperature Precipitation Wind Pressure Humidity
    00:00 +23°C° 0 mm 5 mps 756 mmHg 76%
    01:00 +23°C° 0 mm 5 mps 755 mmHg 74%
    02:00 +23°C° 0 mm 4 mps 755 mmHg 73%
    03:00 +23°C° 0.3 mm 5 mps 755 mmHg 79%
    04:00 +22°C° 0.3 mm 6 mps 755 mmHg 85%
    05:00 +22°C° 0.3 mm 7 mps 755 mmHg 91%
    06:00 +23°C° 0.1 mm 8 mps 755 mmHg 84%
    07:00 +24°C° 0.1 mm 8 mps 755 mmHg 77%
    08:00 +24°C° 0.1 mm 9 mps 755 mmHg 70%
    09:00 +24°C° 0 mm 8 mps 756 mmHg 66%
    10:00 +24°C° 0 mm 8 mps 756 mmHg 62%
    11:00 +23°C° 0 mm 8 mps 756 mmHg 58%
    12:00 +26°C° 0 mm 7 mps 756 mmHg 54%
    13:00 +27°C° 0 mm 7 mps 757 mmHg 51%
    14:00 +28°C° 0 mm 7 mps 757 mmHg 48%
    15:00 +28°C° 0 mm 6 mps 757 mmHg 48%
    16:00 +28°C° 0 mm 6 mps 757 mmHg 48%
    17:00 +27°C° 0 mm 6 mps 757 mmHg 49%
    18:00 +26°C° 0 mm 7 mps 757 mmHg 50%
    19:00 +24°C° 0 mm 7 mps 757 mmHg 51%
    20:00 +23°C° 0 mm 8 mps 758 mmHg 53%
    21:00 +22°C° 0 mm 8 mps 758 mmHg 51%
    22:00 +22°C° 0 mm 8 mps 759 mmHg 50%
    23:00 +21°C° 0 mm 8 mps 759 mmHg 48%

    29 June, Saturday

    Time Temperature Precipitation Wind Pressure Humidity
    00:00 +20°C° 0 mm 8 mps 759 mmHg 51%
    01:00 +20°C° 0 mm 8 mps 759 mmHg 53%
    02:00 +18°C° 0 mm 7 mps 759 mmHg 56%
    03:00 +17°C° 0 mm 7 mps 759 mmHg 59%
    04:00 +17°C° 0 mm 7 mps 759 mmHg 63%
    05:00 +16°C° 0 mm 7 mps 759 mmHg 66%
    06:00 +17°C° 0 mm 7 mps 760 mmHg 61%
    07:00 +20°C° 0 mm 7 mps 760 mmHg 55%
    08:00 +21°C° 0 mm 7 mps 760 mmHg 50%
    09:00 +22°C° 0 mm 7 mps 760 mmHg 46%
    10:00 +23°C° 0 mm 7 mps 760 mmHg 42%
    11:00 +26°C° 0 mm 7 mps 761 mmHg 38%
    12:00 +26°C° 0 mm 7 mps 760 mmHg 38%
    13:00 +26°C° 0 mm 7 mps 760 mmHg 37%
    14:00 +26°C° 0 mm 7 mps 760 mmHg 37%
    15:00 +26°C° 0 mm 7 mps 760 mmHg 38%
    16:00 +26°C° 0 mm 7 mps 760 mmHg 39%
    17:00 +26°C° 0 mm 7 mps 760 mmHg 40%
    18:00 +23°C° 0 mm 7 mps 760 mmHg 47%
    19:00 +21°C° 0 mm 7 mps 760 mmHg 54%
    20:00 +20°C° 0 mm 7 mps 760 mmHg 61%
    21:00 +18°C° 0.1 mm 7 mps 761 mmHg 63%
    22:00 +17°C° 0.1 mm 7 mps 761 mmHg 66%
    23:00 +16°C° 0.1 mm 7 mps 761 mmHg 69%

    30 June, Sunday

    Time Temperature Precipitation Wind Pressure Humidity
    00:00 +16°C° 0 mm 7 mps 762 mmHg 69%
    01:00 +16°C° 0 mm 7 mps 762 mmHg 69%
    02:00 +15°C° 0 mm 7 mps 762 mmHg 69%
    03:00 +15°C° 0 mm 8 mps 762 mmHg 70%
    04:00 +13°C° 0 mm 8 mps 762 mmHg 72%
    05:00 +13°C° 0 mm 8 mps 762 mmHg 73%
    06:00 +16°C° 0 mm 8 mps 762 mmHg 65%
    07:00 +17°C° 0 mm 8 mps 763 mmHg 58%
    08:00 +20°C° 0 mm 8 mps 763 mmHg 50%
    09:00 +21°C° 0 mm 7 mps 763 mmHg 46%
    10:00 +23°C° 0 mm 7 mps 763 mmHg 42%
    11:00 +24°C° 0 mm 6 mps 764 mmHg 38%
    12:00 +24°C° 0 mm 6 mps 764 mmHg 41%
    13:00 +25°C° 0 mm 5 mps 763 mmHg 43%
    14:00 +25°C° 0 mm 5 mps 763 mmHg 46%
    15:00 +25°C° 0 mm 5 mps 763 mmHg 46%
    16:00 +25°C° 0 mm 4 mps 763 mmHg 45%
    17:00 +25°C° 0 mm 4 mps 763 mmHg 45%
    18:00 +23°C° 0 mm 4 mps 763 mmHg 51%
    19:00 +21°C° 0 mm 5 mps 763 mmHg 57%
    20:00 +20°C° 0 mm 6 mps 763 mmHg 63%
    21:00 +19°C° 0 mm 5 mps 763 mmHg 64%
    22:00 +19°C° 0 mm 5 mps 764 mmHg 66%
    23:00 +17°C° 0 mm 5 mps 764 mmHg 67%

    1 July, Monday

    Time Temperature Precipitation Wind Pressure Humidity
    00:00 +17°C° 0 mm 5 mps 764 mmHg 69%
    01:00 +17°C° 0 mm 5 mps 763 mmHg 70%
    02:00 +17°C° 0 mm 5 mps 763 mmHg 71%
    03:00 +17°C° 0 mm 5 mps 763 mmHg 72%
    04:00 +17°C° 0 mm 5 mps 763 mmHg 73%
    05:00 +17°C° 0 mm 5 mps 763 mmHg 73%
    06:00 +20°C° 0 mm 4 mps 763 mmHg 66%
    07:00 +22°C° 0 mm 4 mps 763 mmHg 58%
    08:00 +25°C° 0 mm 3 mps 763 mmHg 50%
    09:00 +26°C° 0 mm 3 mps 763 mmHg 47%
    10:00 +27°C° 0 mm 2 mps 763 mmHg 45%
    11:00 +29°C° 0 mm 2 mps 763 mmHg 42%
    12:00 +28°C° 0 mm 3 mps 763 mmHg 45%
    13:00 +28°C° 0 mm 3 mps 763 mmHg 47%
    14:00 +28°C° 0 mm 4 mps 763 mmHg 49%
    15:00 +28°C° 0 mm 4 mps 762 mmHg 51%
    16:00 +27°C° 0 mm 4 mps 762 mmHg 53%
    17:00 +27°C° 0 mm 5 mps 762 mmHg 55%
    18:00 +26°C° 0 mm 5 mps 762 mmHg 59%
    19:00 +25°C° 0 mm 5 mps 762 mmHg 64%
    20:00 +23°C° 0 mm 5 mps 762 mmHg 69%
    21:00 +23°C° 0 mm 5 mps 762 mmHg 71%
    22:00 +23°C° 0 mm 5 mps 762 mmHg 74%
    23:00 +22°C° 0 mm 5 mps 762 mmHg 76%
    Show more